Time,TemperatureF,DewpointF,PressureIn,WindDirection,WindDirectionDegrees,WindSpeedMPH,WindSpeedGustMPH,Humidity,HourlyPrecipIn,Conditions,Clouds,dailyrainin,SolarRadiationWatts/m^2,SoftwareType,DateUTC
2013-04-11 00:12:00,48.0,32.0,-100.00,WSW,253,7.0,15.0,53,-99.99,,,0.00,0.000000,,2013-04-11 07:12:00,
2013-04-11 01:12:00,46.0,35.0,-100.00,North,357,4.0,9.0,65,-99.99,,,0.00,0.000000,,2013-04-11 08:12:00,
2013-04-11 02:12:00,44.0,35.0,-100.00,NNW,327,3.0,6.0,69,-99.99,,,0.00,0.000000,,2013-04-11 09:12:00,
2013-04-11 03:12:00,45.0,34.0,-100.00,NW,320,3.0,13.0,66,-99.99,,,0.00,0.000000,,2013-04-11 10:12:00,
2013-04-11 04:12:00,45.0,34.0,-100.00,West,279,6.0,24.0,65,-99.99,,,0.00,0.000000,,2013-04-11 11:12:00,
2013-04-11 05:12:00,45.0,33.0,-100.00,West,278,5.0,10.0,62,-99.99,,,0.00,0.000000,,2013-04-11 12:12:00,
2013-04-11 06:12:00,43.0,33.0,-100.00,ESE,113,2.0,5.0,66,-99.99,,,0.00,0.000000,,2013-04-11 13:12:00,
2013-04-11 07:02:00,42.0,34.0,-100.00,ESE,116,3.0,5.0,71,-99.99,,,0.00,0.350000,,2013-04-11 14:02:00,
2013-04-11 07:12:00,42.0,34.0,-100.00,ESE,116,3.0,5.0,71,-99.99,,,0.00,0.350000,,2013-04-11 14:12:00,
2013-04-11 10:12:00,47.0,34.0,-100.00,WNW,299,6.0,14.0,60,-99.99,,,0.00,132.960007,,2013-04-11 17:12:00,
2013-04-11 12:13:00,49.0,35.0,-100.00,WNW,298,5.0,11.0,58,-99.99,,,0.00,165.850006,,2013-04-11 19:13:00,
2013-04-11 14:12:00,52.0,35.0,-100.00,SW,224,5.0,12.0,53,-99.99,,,0.00,197.809998,,2013-04-11 21:12:00,
2013-04-11 15:13:00,55.0,37.0,-100.00,NW,306,8.0,16.0,51,-99.99,,,0.00,587.140015,,2013-04-11 22:13:00,
2013-04-11 16:12:00,55.0,37.0,-100.00,NW,317,8.0,19.0,50,-99.99,,,0.00,810.289978,,2013-04-11 23:12:00,
2013-04-11 17:12:00,54.0,36.0,-100.00,WNW,294,4.0,10.0,49,-99.99,,,0.00,170.610001,,2013-04-12 00:12:00,
2013-04-11 18:12:00,54.0,37.0,-100.00,NW,312,8.0,17.0,53,-99.99,,,-99.99,126.910004,,2013-04-12 01:12:00,
2013-04-11 19:12:00,55.0,37.0,-100.00,WNW,302,7.0,14.0,50,-99.99,,,-99.99,196.410004,,2013-04-12 02:12:00,
2013-04-11 20:12:00,53.0,36.0,-100.00,WNW,282,4.0,7.0,53,-99.99,,,-99.99,53.459999,,2013-04-12 03:12:00,
2013-04-11 21:13:00,50.0,37.0,-100.00,NW,323,3.0,6.0,62,-99.99,,,0.00,0.230000,,2013-04-12 04:13:00,
2013-04-11 22:12:00,43.0,37.0,-100.00,SE,146,2.0,3.0,81,-99.99,,,0.00,0.000000,,2013-04-12 05:12:00,
2013-04-11 23:12:00,42.0,36.0,-100.00,SE,134,2.0,4.0,80,-99.99,,,0.00,0.000000,,2013-04-12 06:12:00,